Location: Niverville
(49.6028°N, 97.0419°W)
Time: 10:39:53
(UTC-05:00)

Cosmos 1154 Rocket - Visible Passes

Search period start: 18 September 2014 00:00
Search period end: 28 September 2014 00:00
Orbit: 275 x 282 km, 81.2° (Epoch: 18 September)

Date Brightness Start Highest point End Pass type
(mag) Time Alt. Az. Time Alt. Az. Time Alt. Az.
21 Sep 2.5 19:59:05 10° SSW 20:01:24 50° WNW 20:03:44 10° N visible
22 Sep 5.6 05:20:10 10° NE 05:20:38 10° ENE 05:21:06 10° ENE visible
22 Sep 3.5 19:59:48 10° SW 20:02:00 33° WNW 20:04:13 10° N visible
23 Sep 5.1 05:19:46 10° NE 05:21:07 14° ENE 05:22:27 10° ESE visible
23 Sep 4.3 20:00:07 10° SW 20:02:08 24° WNW 20:04:11 10° NNW visible
24 Sep 4.6 05:19:22 10° NNE 05:21:07 18° ENE 05:22:51 10° ESE visible
24 Sep 4.8 20:00:04 10° WSW 20:01:50 18° WNW 20:03:37 10° NNW visible
25 Sep 4.1 05:18:37 10° NNE 05:20:38 23° ENE 05:22:37 10° SE visible
25 Sep 5.0 19:59:39 10° WSW 20:01:04 14° WNW 20:02:29 10° NNW visible
26 Sep 3.4 05:17:29 10° N 05:19:40 31° ENE 05:20:12 27° ESE visible
26 Sep 5.3 19:58:58 10° W 19:59:50 11° WNW 20:00:43 10° NW visible
